[[{"header":{"parameterUnit":"m.s-1","parameterCategory":1,"la1":30.2991,"la2":30.254,"lo1":-89.0895,"lo2":-89.0444,"dy":0.0017,"dx":0.0017,"nx":28,"ny":28,"refTime":"2023-10-30T09:00:00:Z","depth":0,"parameterNumber":2,"parameterNumberName":"U-component_of_WINDS"},"data":[0,0,0,0,0,0,0,0,0,0,0,0,0,0,0,0,0,0,0,0,0,0,0,0,0,0,0,0,0,0,0,0,0,0,0,0,0,0,0,0,0,0,0,0,0,0,0,0,0,0,0,0,0,0,0,0,0,0,-0.8975,-0.8976,0,-0.9041,-0.9042,-0.9043,-0.9048,-0.9047,-0.9046,-0.9046,-0.9113,-0.9116,-0.9118,0,0,0,0,0,0,0,0,0,0,0,0,0,-0.8854,-0.8856,-0.8975,-0.8976,-0.8977,-0.9041,-0.9042,-0.9043,-0.9048,-0.9047,-0.9046,-0.9045,-0.9113,-0.9115,-0.9118,0,0,0,0,0,0,0,0,0,0,0,0,0,-0.8912,-0.8857,-0.8975,-0.8987,-0.8989,-0.9041,-0.9042,-0.9043,-0.9048,-0.9047,-0.9046,-0.9045,-0.9112,-0.9115,-0.9119,-0.9164,0,0,-0.913,-0.9132,0,0,0,0,0,0,0,0,-0.8908,-0.8916,-0.8985,-0.8986,-0.8988,-0.9035,-0.9024,-0.9084,-0.9048,-0.9026,-0.9046,-0.9044,-0.9088,-0.9094,-0.9109,-0.9167,-0.917,-0.9131,-0.9133,-0.9134,-0.9135,0,0,0,0,0,0,0,-0.8904,-0.8913,-0.9001,-0.8986,-0.8988,-0.8989,-0.8996,-0.9035,-0.9062,-0.9028,-0.9028,-0.9036,-0.9089,-0.9105,-0.911,-0.9171,-0.913,-0.9134,-0.9136,-0.9137,-0.9268,-0.927,0,0,0,0,0,0,-0.8898,-0.891,-0.8999,-0.9003,-0.8945,-0.8992,-0.9,-0.9021,-0.9062,-0.9067,-0.9037,-0.9036,-0.9099,-0.9106,-0.9113,-0.9167,-0.9134,-0.9138,-0.914,-0.9267,-0.9269,-0.927,0,0,0,0,0,0,-0.8895,-0.8906,-0.8997,-0.8957,-0.8968,-0.8996,-0.9019,-0.9023,-0.9039,-0.9069,-0.9074,-0.9048,-0.9099,-0.9107,-0.9151,-0.917,-0.914,-0.9143,-0.9266,-0.9268,-0.9269,-0.9277,0,0,0,0,0,0,-0.8892,-0.8905,-0.8922,-0.8957,-0.8971,-0.9034,-0.902,-0.9025,-0.9045,-0.9045,-0.9081,-0.9085,-0.9098,-0.9145,-0.9154,-0.9174,-0.9146,-0.9264,-0.9266,-0.9269,-0.9275,-0.9279,-0.9282,0,0,0,0,0,-0.8888,-0.8922,-0.8923,-0.8934,-0.8993,-0.9035,-0.9043,-0.9057,-0.9047,-0.9065,-0.9083,-0.9084,-0.9166,-0.915,-0.916,-0.9181,-0.9263,-0.9266,-0.9269,-0.9274,-0.9278,-0.9282,0,0,0,0,0,0,-0.8889,-0.8927,-0.8929,-0.8975,-0.9002,-0.9036,-0.9058,-0.9061,-0.9091,-0.9089,-0.9106,-0.9114,-0.9156,-0.9173,-0.9154,-0.9227,-0.9213,-0.9218,-0.9214,-0.9219,-0.9222,-0.9217,-0.9149,0,0,0,0,0,-0.8895,-0.8926,-0.8957,-0.8995,-0.9009,-0.9031,-0.905,-0.9059,-0.9087,-0.9098,-0.912,-0.9147,-0.9179,-0.92,-0.9231,-0.9278,-0.9286,-0.9298,-0.9301,-0.9304,-0.9308,-0.9334,-0.934,-0.9279,-0.9279,-0.9279,0,0,-0.8907,-0.8931,-0.895,-0.8996,-0.9018,-0.9049,-0.9041,-0.9074,-0.9098,-0.9103,-0.9145,-0.9162,-0.9194,-0.9239,-0.926,-0.9255,-0.9326,-0.9307,-0.9309,-0.9312,-0.9337,-0.9343,-0.9348,-0.9281,-0.9281,-0.928,0,0,-0.8945,-0.8967,-0.9001,-0.9023,-0.9055,-0.907,-0.9078,-0.9112,-0.9123,-0.9166,-0.917,-0.9198,-0.9253,-0.9275,-0.9293,-0.934,-0.9342,-0.9349,-0.9368,-0.9393,-0.9397,-0.9402,-0.9418,-0.9424,-0.9353,-0.9353,-0.9353,0,-0.8956,-0.9004,-0.9018,-0.9052,-0.9072,-0.9078,-0.9113,-0.9133,-0.9174,-0.9188,-0.9181,-0.9249,-0.9271,-0.9321,-0.9332,-0.9347,-0.9357,-0.9345,-0.9395,-0.94,-0.9404,-0.942,-0.9426,-0.9354,-0.9354,-0.9354,-0.9354,0,-0.9016,-0.9049,-0.9073,-0.9112,-0.9135,-0.9169,-0.9188,-0.921,-0.9216,-0.9231,-0.9274,-0.9301,-0.9337,-0.9349,-0.9356,-0.9401,-0.9396,-0.9392,-0.9379,-0.941,-0.9425,-0.9432,-0.9355,-0.9355,-0.9355,-0.9355,0,0,-0.9058,-0.9104,-0.9112,-0.913,-0.9166,-0.9192,-0.9226,-0.9261,-0.9279,-0.9307,-0.9336,-0.9382,-0.9379,-0.9399,-0.9409,-0.9431,-0.9465,-0.9424,-0.9425,-0.9431,-0.9516,-0.9518,-0.9525,-0.9467,-0.9468,-0.9469,-0.9513,0,-0.91,-0.9161,-0.9175,-0.9227,-0.9257,-0.9263,-0.9293,-0.9318,-0.9333,-0.9361,-0.9378,-0.941,-0.9403,-0.9416,-0.9438,-0.9456,-0.9483,-0.9453,-0.9494,-0.9495,-0.9485,-0.9533,-0.9536,-0.9577,-0.9519,-0.952,-0.9521,0,-0.9158,-0.9187,-0.9242,-0.9274,-0.9287,-0.9314,-0.9347,-0.9374,-0.9402,-0.9412,-0.9435,-0.9442,-0.9477,-0.9463,-0.9512,-0.9492,-0.9509,-0.952,-0.9522,-0.9527,-0.951,-0.9539,-0.959,-0.9596,-0.953,-0.9529,-0.9529,0,-0.9182,-0.9235,-0.9275,-0.929,-0.9328,-0.9347,-0.9363,-0.9391,-0.9411,-0.944,-0.9453,-0.9486,-0.9504,-0.9529,-0.9544,-0.9532,-0.9592,-0.9579,-0.9601,-0.9601,-0.9614,-0.9613,-0.9668,-0.9625,-0.9625,-0.9625,-0.9624,0,-0.9228,-0.9262,-0.9287,-0.9311,-0.9349,-0.9364,-0.9401,-0.9418,-0.9442,-0.947,-0.9477,-0.9503,-0.9521,-0.955,-0.9562,-0.9601,-0.9609,-0.9618,-0.962,-0.9617,-0.9616,-0.9628,-0.9626,-0.9626,-0.9626,-0.9625,-0.9625,0,-0.9262,-0.928,-0.9324,-0.9356,-0.9365,-0.9391,-0.9419,-0.9443,-0.9458,-0.9493,-0.9502,-0.9526,-0.956,-0.9577,-0.962,-0.9628,-0.9671,-0.9673,-0.9662,-0.9663,-0.9684,-0.9682,-0.975,-0.9759,-0.9709,-0.971,-0.971,0,-0.929,-0.9316,-0.9351,-0.937,-0.9387,-0.9418,-0.9438,-0.9454,-0.9475,-0.9509,-0.9529,-0.9563,-0.9591,-0.9645,-0.9666,-0.9699,-0.9701,-0.9722,-0.9706,-0.9701,-0.9701,-0.9699,-0.9702,-0.9725,-0.9726,-0.9726,-0.9726,0,-0.9338,-0.9346,-0.9375,-0.9407,-0.9431,-0.9458,-0.9484,-0.9499,-0.9519,-0.9542,-0.9576,-0.9598,-0.9641,-0.9675,-0.9709,-0.9726,-0.973,-0.9731,-0.9738,-0.9735,-0.9727,-0.9732,-0.967,-0.973,-0.9729,-0.9729,-0.9729,-0.9729,-0.937,-0.9393,-0.9421,-0.9454,-0.9475,-0.9499,-0.9522,-0.954,-0.9569,-0.9606,-0.9613,-0.965,-0.9677,-0.9723,-0.9741,-0.977,-0.9765,-0.9775,-0.9778,-0.978,-0.9781,-0.9723,-0.9776,-0.9776,-0.9776,-0.9776,-0.9776,0,-0.9418,-0.9436,-0.9466,-0.9502,-0.9527,-0.9528,-0.9556,-0.9578,-0.9609,-0.9635,-0.9662,-0.9702,-0.9734,-0.9758,-0.9791,-0.981,-0.9812,-0.9818,-0.9817,-0.982,-0.9783,-0.9774,-0.9815,-0.9815,-0.9815,-0.9815,-0.9815,-0.9815,-0.9446,-0.9486,-0.9496,-0.9546,-0.9564,-0.9599,-0.9616,-0.9638,-0.9658,-0.9702,-0.9729,-0.9744,-0.9768,-0.9803,-0.9833,-0.9839,-0.9851,-0.9857,-0.9863,-0.9827,-0.9823,-0.9819,-0.981,-0.9859,-0.9859,-0.9898,-0.9898,-0.9898]},{"header":{"parameterUnit":"m.s-1","parameterCategory":1,"la1":30.2991,"la2":30.254,"lo1":-89.0895,"lo2":-89.0444,"dy":0.0017,"dx":0.0017,"nx":28,"ny":28,"refTime":"2023-10-30T09:00:00:Z","depth":0,"parameterNumber":3,"parameterNumberName":"V-component_of_WINDS"},"data":[0,0,0,0,0,0,0,0,0,0,0,0,0,0,0,0,0,0,0,0,0,0,0,0,0,0,0,0,0,0,0,0,0,0,0,0,0,0,0,0,0,0,0,0,0,0,0,0,0,0,0,0,0,0,0,0,0,0,-0.8804,-0.8803,0,-0.8743,-0.8743,-0.8742,-0.8722,-0.8722,-0.8722,-0.8722,-0.8659,-0.8657,-0.8655,0,0,0,0,0,0,0,0,0,0,0,0,0,-0.8898,-0.8896,-0.8804,-0.8803,-0.8802,-0.8744,-0.8743,-0.8742,-0.8722,-0.8722,-0.8722,-0.8722,-0.866,-0.8657,-0.8655,0,0,0,0,0,0,0,0,0,0,0,0,0,-0.8849,-0.8896,-0.8804,-0.8785,-0.8783,-0.8744,-0.8743,-0.8742,-0.8721,-0.8722,-0.8722,-0.8723,-0.866,-0.8657,-0.8655,-0.8629,0,0,-0.8646,-0.8645,0,0,0,0,0,0,0,0,-0.8852,-0.8846,-0.8789,-0.8786,-0.8784,-0.874,-0.8753,-0.8704,-0.8721,-0.8745,-0.8722,-0.8723,-0.8686,-0.8681,-0.8669,-0.8627,-0.8624,-0.8646,-0.8644,-0.8643,-0.8642,0,0,0,0,0,0,0,-0.8855,-0.8848,-0.878,-0.8788,-0.8785,-0.8778,-0.8772,-0.8743,-0.8714,-0.8743,-0.8741,-0.8734,-0.8684,-0.8671,-0.8667,-0.8623,-0.8646,-0.8643,-0.8641,-0.864,-0.8555,-0.8554,0,0,0,0,0,0,-0.8862,-0.8851,-0.8782,-0.8778,-0.8819,-0.8776,-0.8769,-0.8754,-0.8714,-0.8708,-0.8734,-0.8734,-0.8676,-0.867,-0.8665,-0.8631,-0.8643,-0.864,-0.8638,-0.8555,-0.8554,-0.8554,0,0,0,0,0,0,-0.8864,-0.8856,-0.8784,-0.8814,-0.8804,-0.8774,-0.8757,-0.8753,-0.874,-0.8708,-0.8702,-0.8726,-0.8676,-0.8669,-0.8638,-0.8629,-0.8639,-0.8636,-0.8556,-0.8555,-0.8554,-0.8565,0,0,0,0,0,0,-0.8867,-0.8857,-0.8848,-0.8814,-0.8803,-0.876,-0.8757,-0.8751,-0.8735,-0.8734,-0.8699,-0.8693,-0.8676,-0.8642,-0.8635,-0.8625,-0.8634,-0.8556,-0.8555,-0.8554,-0.8565,-0.8564,-0.8564,0,0,0,0,0,-0.8871,-0.8854,-0.8848,-0.884,-0.8791,-0.8759,-0.8753,-0.8733,-0.8734,-0.8724,-0.8703,-0.8695,-0.8631,-0.8639,-0.8631,-0.862,-0.8557,-0.8556,-0.8555,-0.8565,-0.8565,-0.8564,0,0,0,0,0,0,-0.8887,-0.8849,-0.8842,-0.8814,-0.879,-0.8756,-0.8743,-0.8733,-0.8708,-0.8708,-0.8684,-0.8677,-0.8647,-0.863,-0.8641,-0.8592,-0.8593,-0.859,-0.8604,-0.8603,-0.8603,-0.8607,-0.8631,0,0,0,0,0,-0.8888,-0.8866,-0.8833,-0.8811,-0.88,-0.8773,-0.8759,-0.8746,-0.872,-0.8709,-0.8686,-0.8661,-0.8634,-0.8618,-0.8592,-0.8562,-0.8554,-0.855,-0.855,-0.8549,-0.8547,-0.8528,-0.8525,-0.855,-0.855,-0.855,0,0,-0.8889,-0.8865,-0.8852,-0.8814,-0.8794,-0.877,-0.8765,-0.8741,-0.8723,-0.8705,-0.8675,-0.8657,-0.8627,-0.8596,-0.8581,-0.8581,-0.8538,-0.8548,-0.8548,-0.8545,-0.8526,-0.8524,-0.8522,-0.8549,-0.8549,-0.8549,0,0,-0.8878,-0.8858,-0.8837,-0.8817,-0.8786,-0.8769,-0.8763,-0.873,-0.8718,-0.8687,-0.8672,-0.865,-0.8606,-0.8585,-0.8568,-0.8547,-0.8537,-0.8539,-0.8536,-0.8517,-0.8515,-0.8513,-0.8504,-0.8502,-0.8537,-0.8537,-0.8537,0,-0.8882,-0.8847,-0.8827,-0.8803,-0.8786,-0.8769,-0.8747,-0.8728,-0.869,-0.8678,-0.8678,-0.8622,-0.86,-0.8563,-0.8558,-0.8545,-0.8537,-0.8543,-0.8517,-0.8515,-0.8513,-0.8504,-0.8501,-0.8537,-0.8537,-0.8537,-0.8537,0,-0.8854,-0.8829,-0.8816,-0.878,-0.8761,-0.8738,-0.8713,-0.8696,-0.8684,-0.8666,-0.8633,-0.8607,-0.8575,-0.8565,-0.8553,-0.8525,-0.8526,-0.8522,-0.8523,-0.8511,-0.8503,-0.8499,-0.8538,-0.8538,-0.8537,-0.8537,0,0,-0.8853,-0.8805,-0.8801,-0.8783,-0.8747,-0.8728,-0.8703,-0.8672,-0.8657,-0.8631,-0.8609,-0.8571,-0.8567,-0.8548,-0.8533,-0.8517,-0.85,-0.8514,-0.8513,-0.8512,-0.8465,-0.8468,-0.8465,-0.8493,-0.8492,-0.8492,-0.8467,0,-0.8837,-0.8793,-0.8773,-0.8737,-0.8714,-0.8696,-0.8674,-0.8649,-0.8631,-0.8607,-0.8586,-0.856,-0.8557,-0.8545,-0.8528,-0.8505,-0.849,-0.8507,-0.8471,-0.847,-0.8478,-0.846,-0.8464,-0.8442,-0.8464,-0.8463,-0.8463,0,-0.8813,-0.8787,-0.8749,-0.8714,-0.8703,-0.8684,-0.8653,-0.8631,-0.8601,-0.8589,-0.8566,-0.8552,-0.8524,-0.8526,-0.8486,-0.8498,-0.8481,-0.8468,-0.8466,-0.8462,-0.8466,-0.8454,-0.8435,-0.8431,-0.8458,-0.8458,-0.8458,0,-0.8815,-0.877,-0.8741,-0.8727,-0.8686,-0.8673,-0.8655,-0.8626,-0.8607,-0.8579,-0.8567,-0.8536,-0.8519,-0.8495,-0.8472,-0.8476,-0.8433,-0.8434,-0.8421,-0.8421,-0.8412,-0.8413,-0.8389,-0.8403,-0.8403,-0.8403,-0.8403,0,-0.8799,-0.8776,-0.8741,-0.8724,-0.8697,-0.8673,-0.8647,-0.8627,-0.8601,-0.8578,-0.8561,-0.8539,-0.851,-0.8485,-0.8466,-0.8435,-0.8427,-0.8415,-0.8411,-0.8417,-0.8418,-0.8405,-0.8406,-0.8402,-0.8402,-0.8403,-0.8403,0,-0.8797,-0.8773,-0.874,-0.8703,-0.8693,-0.8675,-0.8643,-0.8624,-0.8604,-0.8575,-0.8567,-0.8536,-0.8504,-0.8479,-0.8438,-0.8425,-0.8392,-0.8387,-0.8402,-0.8399,-0.8387,-0.8388,-0.8354,-0.8347,-0.8367,-0.8366,-0.8366,0,-0.8788,-0.877,-0.8731,-0.8714,-0.8697,-0.8671,-0.8652,-0.8627,-0.8608,-0.8571,-0.8556,-0.8524,-0.8496,-0.8447,-0.8419,-0.8387,-0.8381,-0.8371,-0.8376,-0.8382,-0.8379,-0.838,-0.8378,-0.837,-0.837,-0.837,-0.837,0,-0.8775,-0.8763,-0.8737,-0.8706,-0.8684,-0.8658,-0.8632,-0.8619,-0.8589,-0.8568,-0.8536,-0.8514,-0.8472,-0.8439,-0.8404,-0.8384,-0.8371,-0.8369,-0.8364,-0.8369,-0.8378,-0.8372,-0.84,-0.837,-0.837,-0.837,-0.837,-0.837,-0.8768,-0.8751,-0.872,-0.8691,-0.8668,-0.8643,-0.8623,-0.8601,-0.8574,-0.8537,-0.8524,-0.849,-0.8459,-0.841,-0.839,-0.8362,-0.8361,-0.8354,-0.8352,-0.8351,-0.8351,-0.8383,-0.8356,-0.8356,-0.8356,-0.8356,-0.8356,0,-0.8753,-0.8732,-0.8705,-0.8669,-0.8645,-0.8636,-0.8605,-0.8586,-0.8557,-0.8529,-0.8502,-0.8463,-0.8431,-0.8401,-0.8366,-0.835,-0.8343,-0.8341,-0.8342,-0.8337,-0.8354,-0.8362,-0.8347,-0.8347,-0.8347,-0.8347,-0.8347,-0.8347,-0.8742,-0.8711,-0.8696,-0.8653,-0.8632,-0.8599,-0.8582,-0.8559,-0.8536,-0.8494,-0.8467,-0.8447,-0.8417,-0.838,-0.8349,-0.8341,-0.8329,-0.8329,-0.8319,-0.8335,-0.8336,-0.8337,-0.8344,-0.8326,-0.8326,-0.8304,-0.8303,-0.8303]}]]